Location: Bretagne
(43.8474°N, 0.4650°W)
Time: 01:46:42
(UTC+00:00)

BlueWalker 3 - Visible Passes

Search period start: 13 March 2026 00:00
Search period end: 23 March 2026 00:00
Orbit: 451 x 458 km, 53.2° (Epoch: 12 March)

Date Brightness Start Highest point End Pass type
(mag) Time Alt. Az. Time Alt. Az. Time Alt. Az.
13 Mar 5.0 03:14:27 12° NE 03:14:27 12° NE 03:14:58 10° NE visible
13 Mar 3.2 04:48:09 16° NW 04:50:36 34° NNE 04:53:56 10° E visible
14 Mar 3.4 04:13:28 26° N 04:14:21 29° NNE 04:17:32 10° E visible
15 Mar 4.0 03:38:52 24° NE 03:38:52 24° NE 03:41:09 10° ENE visible
15 Mar 1.6 05:12:34 12° WNW 05:15:50 77° SW 05:19:24 10° SE visible
16 Mar 5.1 03:04:24 12° ENE 03:04:24 12° ENE 03:04:42 10° ENE visible
16 Mar 1.7 04:38:06 32° NW 04:39:38 82° NE 04:43:13 10° ESE visible
17 Mar 2.3 04:03:48 58° ENE 04:03:48 58° ENE 04:06:58 10° ESE visible
17 Mar 3.3 05:37:57 10° W 05:40:31 19° SW 05:43:04 10° S visible
18 Mar 4.4 03:29:40 17° E 03:29:40 17° E 03:30:40 10° ESE visible
18 Mar 2.9 05:03:24 21° WSW 05:04:24 24° SW 05:07:22 10° S visible
19 Mar 3.1 04:29:31 25° S 04:29:31 25° S 04:31:29 10° SSE visible
21 Mar 3.1 20:04:20 10° SSW 20:06:14 27° SSW 20:06:14 27° SSW visible
22 Mar 2.4 19:28:17 10° SSW 19:31:34 34° SE 19:32:36 28° E visible
22 Mar 4.6 21:05:34 10° W 21:06:21 15° W 21:06:21 15° W visible
